Regional Weather Roundup
Issued by NWS

Home | Current Version | Previous Version | Text Only | Print | Product List | Glossary On
Versions: 1 2 3 4 5 6 7 8 9 10 11 12 13 14 15 16 17 18 19 20 21 22 23 24 25 26 27 28 29 30 31 32 33 34 35 36 37 38 39 40 41 42 43 44 45 46 47 48 49 50
000
ASUS43 KOAX 300702
RWRNE

WEATHER ROUNDUP FOR NEBRASKA
NATIONAL WEATHER SERVICE OMAHA NE
200 AM CDT WED JUL 30 2014

NOTES: SATELLITE DATA IS BEING USED TO AUGMENT CLOUD COVER ABOVE
       12000 FEET.
       "FAIR" INDICATES FEW OR NO CLOUDS BELOW 12,000 FEET WITH NO
       SIGNIFICANT WEATHER AND/OR OBSTRUCTIONS TO VISIBILITY.

  * THESE STATIONS DO NOT REPORT WEATHER SUCH AS RAIN...SNOW OR FOG.

NEZ001>004-019>022-054>056-300800-
NEBRASKA PANHANDLE

CITY           SKY/WX    TMP DP  RH WIND       PRES   REMARKS
SCOTTSBLUFF    LGT RAIN  65  61  87 N3        30.26S
ALLIANCE       CLOUDY    63  54  72 NE5       30.25S
CHADRON        CLOUDY    56  53  90 CALM      30.23F
KIMBALL        LGT RAIN  59  59  97 NE5       30.27F
SIDNEY         CLOUDY    63  61  93 SW6       30.26F
$$

NEZ057>060-069>072-079>082-300800-
SOUTHWEST NEBRASKA

CITY           SKY/WX    TMP DP  RH WIND       PRES   REMARKS
NORTH PLATTE   CLOUDY    65  60  84 E5        30.20S
IMPERIAL       HVY RAIN  63  60  90 E13       30.22S FOG
LEXINGTON      CLOUDY    67  60  78 E5        30.19R
MCCOOK         HVY RAIN  64  61  90 NE14      30.18S FOG
OGALLALA       CLOUDY    64  61  90 CALM      30.22S
$$

NEZ005>010-023>029-035>040-094-300800-
NORTH CENTRAL NEBRASKA

CITY           SKY/WX    TMP DP  RH WIND       PRES   REMARKS
VALENTINE      MOCLDY    54  50  86 W3        30.20S
AINSWORTH      MOCLDY    58  51  78 CALM      30.19S
BROKEN BOW     CLOUDY    63  59  87 CALM      30.18S
ORD            CLOUDY    59  57  93 N3        30.16F
$$

NEZ041-046>049-061>064-073>077-083>087-300800-
SOUTH CENTRAL NEBRASKA

CITY           SKY/WX    TMP DP  RH WIND       PRES   REMARKS
GRAND ISLAND   CLOUDY    64  60  87 E5        30.16F
AURORA         CLOUDY    64  61  91 E3        30.16S
HASTINGS       CLOUDY    67  54  63 E6        30.16S
HEBRON         CLOUDY    64  56  74 CALM      30.15S
HOLDREGE       CLOUDY    64  59  83 E5        30.17S
KEARNEY *      CLOUDY    64  57  77 SE5       30.18R
YORK           CLOUDY    64  59  82 CALM      30.16S
$$

NEZ011>018-030>034-042>045-300800-
NORTHEAST NEBRASKA

CITY           SKY/WX    TMP DP  RH WIND       PRES   REMARKS
NORFOLK        PTCLDY    57  53  86 CALM      30.16S
ALBION         PTCLDY    55  53  91 CALM      30.17S
BLAIR          CLEAR     63  53  70 CALM      30.13F
COLUMBUS *     PTCLDY    55  52  88 CALM      30.15F
FREMONT        CLEAR     61  56  85 CALM      30.14F
TEKAMAH        CLEAR     56  52  86 NW3       30.14F
WAYNE          CLEAR     54  52  94 CALM      30.16S
$$

NEZ050>053-065>068-078-088>093-300800-
SOUTHEAST NEBRASKA

CITY           SKY/WX    TMP DP  RH WIND       PRES   REMARKS
LINCOLN        CLOUDY    65  57  75 N5        30.14F
OMAHA EPPLEY   PTCLDY    59  56  89 N3        30.13F
BEATRICE       CLOUDY    63  57  82 CALM      30.13S
FALLS CITY     PTCLDY    63  57  81 CALM      30.11F
NEBRASKA CITY  PTCLDY    62  56  82 CALM      30.13F
PLATTSMOUTH    PTCLDY    60  55  81 N3        30.13F
$$

NEZ044-045-051>053-067-300800-
OMAHA AREA

CITY           SKY/WX    TMP DP  RH WIND       PRES   REMARKS
OMAHA EPPLEY   PTCLDY    59  56  89 N3        30.13F
BLAIR          CLEAR     63  53  70 CALM      30.13F
FREMONT        CLEAR     61  56  85 CALM      30.14F
MILLARD        CLEAR     60  58  92 CALM      30.13F
OFFUTT AFB     CLEAR     54  54 100 CALM      30.12F
PLATTSMOUTH    PTCLDY    60  55  81 N3        30.13F
WAHOO          FAIR      60  56  87 N3        30.13F
$$


USA.gov is the U.S. government's official web portal to all federal, state and local government web resources and services.